Time,TemperatureF,DewpointF,PressureIn,WindDirection,WindDirectionDegrees,WindSpeedMPH,WindSpeedGustMPH,Humidity,HourlyPrecipIn,Conditions,Clouds,dailyrainin,SoftwareType,DateUTC
2013-05-03 00:00:00,72.2,68.0,29.83,SSW,197,1.0,1.0,86,0.00,,,0.00,weatherlink.com 1.10,2013-05-03 04:00:00,
2013-05-03 00:15:00,72.8,69.0,29.83,SSW,200,2.0,4.0,87,0.00,,,0.00,weatherlink.com 1.10,2013-05-03 04:15:00,
2013-05-03 00:30:00,73.1,69.0,29.83,South,179,1.0,3.0,87,0.00,,,0.00,weatherlink.com 1.10,2013-05-03 04:30:00,
2013-05-03 00:45:00,72.8,69.0,29.83,SSW,201,3.0,5.0,87,0.00,,,0.00,weatherlink.com 1.10,2013-05-03 04:45:00,
2013-05-03 01:00:00,73.0,69.0,29.82,South,179,3.0,4.0,86,0.00,,,0.00,weatherlink.com 1.10,2013-05-03 05:00:00,
2013-05-03 01:15:00,73.3,69.0,29.82,SW,228,5.0,5.0,86,0.00,,,0.00,weatherlink.com 1.10,2013-05-03 05:15:00,
2013-05-03 01:30:00,72.7,69.0,29.82,SSW,211,2.0,5.0,87,0.00,,,0.00,weatherlink.com 1.10,2013-05-03 05:30:00,
2013-05-03 01:45:00,72.2,69.0,29.81,SSW,192,4.0,9.0,89,0.00,,,0.00,weatherlink.com 1.10,2013-05-03 05:45:00,
2013-05-03 02:00:00,71.7,69.0,29.80,SSW,212,4.0,7.0,91,0.00,,,0.00,weatherlink.com 1.10,2013-05-03 06:00:00,
2013-05-03 02:15:00,71.5,69.0,29.79,SSW,204,8.0,8.0,91,0.00,,,0.00,weatherlink.com 1.10,2013-05-03 06:15:00,
2013-05-03 02:30:00,71.5,69.0,29.79,South,169,5.0,8.0,91,0.00,,,0.00,weatherlink.com 1.10,2013-05-03 06:30:00,
2013-05-03 02:45:00,71.3,68.0,29.78,SSE,159,1.0,7.0,90,0.00,,,0.00,weatherlink.com 1.10,2013-05-03 06:45:00,
2013-05-03 03:00:00,71.3,68.0,29.78,SW,225,4.0,7.0,89,0.00,,,0.00,weatherlink.com 1.10,2013-05-03 07:00:00,
2013-05-03 03:15:00,71.6,68.0,29.77,SSW,211,5.0,6.0,87,0.00,,,0.00,weatherlink.com 1.10,2013-05-03 07:15:00,
2013-05-03 03:30:00,71.7,67.0,29.77,WSW,252,4.0,7.0,86,0.00,,,0.00,weatherlink.com 1.10,2013-05-03 07:30:00,
2013-05-03 03:45:00,71.6,67.0,29.77,SSW,211,3.0,10.0,85,0.00,,,0.00,weatherlink.com 1.10,2013-05-03 07:45:00,
2013-05-03 04:01:00,71.4,67.0,29.77,SSW,194,2.0,8.0,86,0.00,,,0.00,weatherlink.com 1.10,2013-05-03 08:01:00,
2013-05-03 04:16:00,71.4,67.0,29.77,SSE,153,1.0,8.0,87,0.00,,,0.00,weatherlink.com 1.10,2013-05-03 08:16:00,
2013-05-03 04:31:00,71.3,68.0,29.77,SSW,210,2.0,6.0,89,0.00,,,0.00,weatherlink.com 1.10,2013-05-03 08:31:00,
2013-05-03 04:46:00,71.2,68.0,29.77,SW,214,5.0,8.0,89,0.00,,,0.00,weatherlink.com 1.10,2013-05-03 08:46:00,
2013-05-03 05:01:00,71.4,68.0,29.76,SW,226,1.0,5.0,90,0.00,,,0.00,weatherlink.com 1.10,2013-05-03 09:01:00,
2013-05-03 05:16:00,71.4,68.0,29.76,SSW,211,2.0,6.0,90,0.00,,,0.00,weatherlink.com 1.10,2013-05-03 09:16:00,
2013-05-03 05:31:00,71.7,68.0,29.77,SSW,211,2.0,6.0,89,0.00,,,0.00,weatherlink.com 1.10,2013-05-03 09:31:00,
2013-05-03 05:46:00,71.7,69.0,29.77,SSW,193,1.0,4.0,90,0.00,,,0.00,weatherlink.com 1.10,2013-05-03 09:46:00,
2013-05-03 06:01:00,71.7,69.0,29.78,SW,225,1.0,4.0,90,0.00,,,0.00,weatherlink.com 1.10,2013-05-03 10:01:00,
2013-05-03 06:16:00,71.7,69.0,29.78,SW,224,0.0,3.0,90,0.00,,,0.00,weatherlink.com 1.10,2013-05-03 10:16:00,
2013-05-03 06:31:00,71.1,68.0,29.78,ESE,117,1.0,1.0,90,0.00,,,0.00,weatherlink.com 1.10,2013-05-03 10:31:00,
2013-05-03 06:46:00,70.0,67.0,29.79,East,84,1.0,3.0,91,0.00,,,0.00,weatherlink.com 1.10,2013-05-03 10:46:00,
2013-05-03 07:01:00,68.9,67.0,29.79,East,98,0.0,2.0,92,0.00,,,0.00,weatherlink.com 1.10,2013-05-03 11:01:00,
2013-05-03 07:16:00,68.7,67.0,29.79,East,91,0.0,1.0,93,0.00,,,0.00,weatherlink.com 1.10,2013-05-03 11:16:00,
2013-05-03 07:31:00,68.8,67.0,29.79,East,91,1.0,2.0,93,0.00,,,0.00,weatherlink.com 1.10,2013-05-03 11:31:00,
2013-05-03 07:46:00,69.3,67.0,29.79,East,86,1.0,3.0,93,0.00,,,0.00,weatherlink.com 1.10,2013-05-03 11:46:00,
2013-05-03 08:01:00,70.4,68.0,29.79,ESE,102,1.0,4.0,92,0.00,,,0.00,weatherlink.com 1.10,2013-05-03 12:01:00,
2013-05-03 08:16:00,72.7,69.0,29.79,ESE,110,0.0,4.0,88,0.00,,,0.00,weatherlink.com 1.10,2013-05-03 12:16:00,
2013-05-03 08:31:00,74.3,70.0,29.80,SSW,197,0.0,3.0,85,0.00,,,0.00,weatherlink.com 1.10,2013-05-03 12:31:00,
2013-05-03 08:46:00,75.6,70.0,29.80,South,170,1.0,3.0,82,0.00,,,0.00,weatherlink.com 1.10,2013-05-03 12:46:00,
2013-05-03 09:01:00,75.1,70.0,29.80,South,170,1.0,4.0,83,0.00,,,0.00,weatherlink.com 1.10,2013-05-03 13:01:00,
2013-05-03 09:16:00,75.2,70.0,29.79,South,179,2.0,5.0,83,0.00,,,0.00,weatherlink.com 1.10,2013-05-03 13:16:00,
2013-05-03 09:31:00,75.5,70.0,29.80,SSW,211,1.0,5.0,83,0.00,,,0.00,weatherlink.com 1.10,2013-05-03 13:31:00,
2013-05-03 09:46:00,76.6,70.0,29.80,WSW,249,2.0,5.0,81,0.00,,,0.00,weatherlink.com 1.10,2013-05-03 13:46:00,
2013-05-03 10:01:00,76.2,71.0,29.80,SW,214,4.0,5.0,83,0.00,,,0.00,weatherlink.com 1.10,2013-05-03 14:01:00,
2013-05-03 10:16:00,77.5,71.0,29.80,SSW,203,2.0,4.0,80,0.00,,,0.00,weatherlink.com 1.10,2013-05-03 14:16:00,
2013-05-03 10:31:00,77.5,71.0,29.80,South,175,2.0,5.0,80,0.00,,,0.00,weatherlink.com 1.10,2013-05-03 14:31:00,
2013-05-03 10:46:00,77.3,71.0,29.80,SW,217,0.0,6.0,81,0.00,,,0.00,weatherlink.com 1.10,2013-05-03 14:46:00,
2013-05-03 11:01:00,77.9,71.0,29.80,SSE,165,2.0,6.0,80,0.00,,,0.00,weatherlink.com 1.10,2013-05-03 15:01:00,
2013-05-03 11:16:00,77.6,71.0,29.80,SSW,210,4.0,5.0,81,0.00,,,0.00,weatherlink.com 1.10,2013-05-03 15:16:00,
2013-05-03 11:31:00,77.8,71.0,29.80,SW,232,5.0,7.0,79,0.00,,,0.00,weatherlink.com 1.10,2013-05-03 15:31:00,
2013-05-03 11:46:00,78.4,72.0,29.80,West,270,2.0,6.0,80,0.00,,,0.00,weatherlink.com 1.10,2013-05-03 15:46:00,
2013-05-03 12:01:00,79.2,72.0,29.79,WNW,302,4.0,6.0,78,0.00,,,0.00,weatherlink.com 1.10,2013-05-03 16:01:00,
2013-05-03 12:16:00,79.3,72.0,29.79,WNW,300,1.0,5.0,77,0.00,,,0.00,weatherlink.com 1.10,2013-05-03 16:16:00,
2013-05-03 12:31:00,80.5,71.0,29.79,NNW,342,1.0,4.0,73,0.00,,,0.00,weatherlink.com 1.10,2013-05-03 16:31:00,
2013-05-03 12:46:00,80.6,71.0,29.79,NE,41,3.0,5.0,72,0.00,,,0.00,weatherlink.com 1.10,2013-05-03 16:46:00,
2013-05-03 13:02:00,80.7,71.0,29.79,West,274,2.0,6.0,73,0.00,,,0.00,weatherlink.com 1.10,2013-05-03 17:02:00,
2013-05-03 13:17:00,79.5,70.0,29.78,NNW,330,6.0,7.0,73,0.00,,,0.00,weatherlink.com 1.10,2013-05-03 17:17:00,
2013-05-03 13:32:00,79.8,70.0,29.78,NW,308,2.0,6.0,71,0.00,,,0.00,weatherlink.com 1.10,2013-05-03 17:32:00,
2013-05-03 13:47:00,80.2,70.0,29.77,NNW,340,2.0,7.0,70,0.00,,,0.00,weatherlink.com 1.10,2013-05-03 17:47:00,
2013-05-03 14:02:00,79.9,71.0,29.77,NW,316,3.0,7.0,74,0.00,,,0.00,weatherlink.com 1.10,2013-05-03 18:02:00,
2013-05-03 14:17:00,79.3,70.0,29.77,NW,323,3.0,9.0,74,0.00,,,0.00,weatherlink.com 1.10,2013-05-03 18:17:00,
2013-05-03 14:32:00,79.8,71.0,29.76,WNW,297,3.0,7.0,74,0.00,,,0.00,weatherlink.com 1.10,2013-05-03 18:32:00,
2013-05-03 14:47:00,79.9,71.0,29.76,NNE,25,4.0,7.0,73,0.00,,,0.00,weatherlink.com 1.10,2013-05-03 18:47:00,
2013-05-03 15:02:00,80.3,71.0,29.75,WNW,302,2.0,7.0,73,0.00,,,0.00,weatherlink.com 1.10,2013-05-03 19:02:00,
2013-05-03 15:17:00,79.9,71.0,29.75,WNW,301,5.0,6.0,73,0.00,,,0.00,weatherlink.com 1.10,2013-05-03 19:17:00,
2013-05-03 15:32:00,80.5,70.0,29.75,NE,53,2.0,8.0,71,0.00,,,0.00,weatherlink.com 1.10,2013-05-03 19:32:00,
2013-05-03 15:47:00,80.5,69.0,29.74,NW,324,5.0,8.0,69,0.00,,,0.00,weatherlink.com 1.10,2013-05-03 19:47:00,
2013-05-03 16:02:00,80.5,69.0,29.73,WSW,248,7.0,7.0,69,0.00,,,0.00,weatherlink.com 1.10,2013-05-03 20:02:00,
2013-05-03 16:17:00,80.3,70.0,29.73,NW,325,6.0,8.0,71,0.00,,,0.00,weatherlink.com 1.10,2013-05-03 20:17:00,
2013-05-03 16:32:00,79.8,71.0,29.73,NW,307,2.0,11.0,74,0.00,,,0.00,weatherlink.com 1.10,2013-05-03 20:32:00,
2013-05-03 16:47:00,79.4,71.0,29.73,North,356,3.0,10.0,75,0.00,,,0.00,weatherlink.com 1.10,2013-05-03 20:47:00,
2013-05-03 17:02:00,79.1,71.0,29.73,NNW,330,4.0,8.0,76,0.00,,,0.00,weatherlink.com 1.10,2013-05-03 21:02:00,
2013-05-03 17:17:00,78.8,71.0,29.73,NNW,347,5.0,8.0,76,0.00,,,0.00,weatherlink.com 1.10,2013-05-03 21:17:00,
2013-05-03 17:32:00,78.1,70.0,29.74,NNE,18,3.0,9.0,75,0.00,,,0.00,weatherlink.com 1.10,2013-05-03 21:32:00,
2013-05-03 17:47:00,77.9,69.0,29.73,NNW,345,4.0,8.0,75,0.00,,,0.00,weatherlink.com 1.10,2013-05-03 21:47:00,
2013-05-03 18:02:00,77.4,70.0,29.74,NNE,27,2.0,8.0,77,0.00,,,0.00,weatherlink.com 1.10,2013-05-03 22:02:00,
2013-05-03 18:17:00,76.7,69.0,29.73,West,273,3.0,9.0,77,0.00,,,0.00,weatherlink.com 1.10,2013-05-03 22:17:00,
2013-05-03 18:32:00,76.6,69.0,29.73,North,354,4.0,11.0,77,0.00,,,0.00,weatherlink.com 1.10,2013-05-03 22:32:00,
2013-05-03 18:47:00,76.2,69.0,29.73,NNE,24,3.0,8.0,79,0.00,,,0.00,weatherlink.com 1.10,2013-05-03 22:47:00,
2013-05-03 19:02:00,76.5,69.0,29.73,WNW,296,3.0,9.0,78,0.00,,,0.00,weatherlink.com 1.10,2013-05-03 23:02:00,
2013-05-03 19:17:00,76.6,69.0,29.74,NNW,347,1.0,6.0,78,0.00,,,0.00,weatherlink.com 1.10,2013-05-03 23:17:00,
2013-05-03 19:32:00,76.0,69.0,29.73,North,5,3.0,6.0,78,0.00,,,0.00,weatherlink.com 1.10,2013-05-03 23:32:00,
2013-05-03 19:47:00,75.2,69.0,29.73,North,359,3.0,7.0,80,0.00,,,0.00,weatherlink.com 1.10,2013-05-03 23:47:00,
2013-05-03 20:02:00,74.6,68.0,29.74,NNE,20,2.0,4.0,80,0.00,,,0.00,weatherlink.com 1.10,2013-05-04 00:02:00,
2013-05-03 20:17:00,74.3,68.0,29.74,NNW,344,1.0,6.0,81,0.00,,,0.00,weatherlink.com 1.10,2013-05-04 00:17:00,
2013-05-03 20:32:00,74.1,68.0,29.74,NNE,18,1.0,4.0,82,0.00,,,0.00,weatherlink.com 1.10,2013-05-04 00:32:00,
2013-05-03 20:47:00,73.9,69.0,29.74,NNW,338,1.0,3.0,83,0.00,,,0.00,weatherlink.com 1.10,2013-05-04 00:47:00,
2013-05-03 21:02:00,73.8,68.0,29.74,NNW,330,1.0,3.0,82,0.00,,,0.00,weatherlink.com 1.10,2013-05-04 01:02:00,
2013-05-03 21:17:00,73.9,69.0,29.74,NNW,327,0.0,2.0,84,0.00,,,0.00,weatherlink.com 1.10,2013-05-04 01:17:00,
2013-05-03 21:32:00,73.7,69.0,29.75,NE,44,2.0,4.0,85,0.00,,,0.00,weatherlink.com 1.10,2013-05-04 01:32:00,
2013-05-03 21:47:00,73.8,69.0,29.75,NE,51,1.0,3.0,86,0.00,,,0.00,weatherlink.com 1.10,2013-05-04 01:47:00,
2013-05-03 22:02:00,73.8,69.0,29.75,North,360,2.0,5.0,86,0.00,,,0.00,weatherlink.com 1.10,2013-05-04 02:02:00,
2013-05-03 22:17:00,73.9,70.0,29.76,North,9,1.0,4.0,86,0.00,,,0.00,weatherlink.com 1.10,2013-05-04 02:17:00,
2013-05-03 22:32:00,74.2,70.0,29.77,NW,321,1.0,5.0,86,0.00,,,0.00,weatherlink.com 1.10,2013-05-04 02:32:00,
2013-05-03 22:47:00,74.4,70.0,29.77,North,1,1.0,4.0,86,0.00,,,0.00,weatherlink.com 1.10,2013-05-04 02:47:00,
2013-05-03 23:02:00,74.4,70.0,29.77,NNE,19,1.0,2.0,85,0.00,,,0.00,weatherlink.com 1.10,2013-05-04 03:02:00,
2013-05-03 23:17:00,74.4,70.0,29.77,West,273,0.0,2.0,86,0.00,,,0.00,weatherlink.com 1.10,2013-05-04 03:17:00,
2013-05-03 23:32:00,73.6,70.0,29.77,NNW,334,1.0,2.0,87,0.00,,,0.00,weatherlink.com 1.10,2013-05-04 03:32:00,
2013-05-03 23:47:00,72.5,69.0,29.77,ESE,102,0.0,1.0,89,0.00,,,0.00,weatherlink.com 1.10,2013-05-04 03:47:00,